星链-1126 (STARLINK-1126 )

导读 | 星芒AI

STARLINK-1126 是 SpaceX Starlink 项目中的第 1126 颗卫星,属于其低轨卫星互联网星座的一部分。该卫星于 2023 年发射,旨在为全球用户提供高速、低延迟的互联网服务。它运行在约 550 公里的轨道高度,采用先进的推进系统和激光通信技术,以提升网络效率和稳定性。Starlink 星座致力于覆盖偏远地区,减少全球数字鸿沟。

基本信息
目录编号:
44951
目录名称:
STARLINK-1126
国际标识:
2020-001AP
轨道中心:
EARTH
卫星名称:
星链-1126
卫星全名:
星链-1126 (STARLINK-1126 )
卫星状态:
已陨落 最后检测时间 2024-05-15
发射日期:
2020-01-07 UTC
国别 :
美国 (US)
星等 :
--
轨道信息
数据来源 国际轨道数据
星历时间: 2024-05-15T10:53:55+0800
轨道信息已过期585天
半长轴: 6569.663km
偏心率: 0.0005953
轨道倾角: 52.985°
近地点辐角 308.210°
升交点赤经 234.074°
平近点角 191.217°
近地点: 187.617km
远地点: 195.439km
周期: 88.323分钟
每日圈数: 16.303774
详细信息
固有亮度:
5
最大亮度:
2.5
卫星平台:
Starlink V1.0
覆盖范围:
全球
运营商:
太空探索技术公司
运营商所在国:
美国
制造商(研发单位):
太空探索技术公司
制造商所在国:
美国
使用方式:
暂无
卫星简介
星链(Starlink)计划是由太空探索技术公司(SpaceX)提出的一个巨型低轨卫星互联网星座项目,计划在2019年至2024年间在太空搭建由约1.2万颗卫星组成的“星链”网络,其中1584颗将部署在地球上空550千米处的近地轨道,并从2020年开始工作。该卫星已陨落。